Regional Weather Roundup
Issued by NWS

Home | Current Version | Previous Version | Graphics & Text | Print | Product List | Glossary On
Versions: 1 2 3 4 5 6 7 8 9 10 11 12 13 14 15 16 17 18 19 20 21 22 23 24 25 26 27
000
ASUS45 KCYS 262210
RWRWY

WYOMING REGIONAL WEATHER ROUNDUP
NATIONAL WEATHER SERVICE CHEYENNE WY
300 PM MST SUN FEB 26 2017

NOTE:  "FAIR" INDICATES FEW OR NO CLOUDS BELOW 12,000 FEET
WITH NO SIGNIFICANT WEATHER AND/OR OBSTRUCTIONS TO VISIBILITY.

WYZ001-262300-
YELLOWSTONE NATIONAL PARK

CITY           SKY/WX    TMP DP  RH WIND       PRES   REMARKS
LK YELLOWSTONE   N/A     17   4  56 W8        29.63F WCI   7
W YELLOWSTONE  NOT AVBL

$$
WYZ002>013-054>058-071-098>099-262300-
NORTHERN WYOMING

CITY           SKY/WX    TMP DP  RH WIND       PRES   REMARKS
JACKSON        NOT AVBL
CODY           PTSUNNY   32   7  35 S14       29.65F WCI  22
GREYBULL       FAIR      31   9  39 SE10      29.72F WCI  22
WORLAND        FAIR      32   8  36 CALM      29.71F
SHERIDAN       FAIR      35  10  35 S12       29.70S WCI  27
BUFFALO        CLOUDY    28   6  39 S9        29.69S WCI  19
GILLETTE       FAIR      33   9  36 S10       29.70F WCI  25
HULETT         MOCLDY    32   9  37 NW7       29.71S WCI  26
NEWCASTLE      FAIR      27  12  54 SE8       29.77F WCI  18

$$
WYZ014>020-022>026-101>103-262300-
CENTRAL WYOMING

CITY           SKY/WX    TMP DP  RH WIND       PRES   REMARKS
BIG PINEY      FAIR      13   4  67 CALM      29.74F
PINEDALE       FAIR      12   3  67 E3        29.75F
DUBOIS         CLOUDY    21   1  42 W24G33    29.60F WCI   4
LANDER         FAIR      23   5  46 SE5       29.68F WCI  17
RIVERTON       FAIR      23   8  52 S9        29.69F WCI  13
CASPER         FAIR      24  10  55 SW23G36   29.73F WCI   9
DOUGLAS        FAIR      25  13  60 W13       29.76S WCI  14

$$
WYZ021-027>030-104>119-262300-
SOUTHERN WYOMING

CITY           SKY/WX    TMP DP  RH WIND       PRES   REMARKS
EVANSTON       FAIR      22   8  55 SW20      29.72F WCI   7
KEMMERER         N/A     21   9  58 W9        29.74  WCI  11
FORT BRIDGER   FAIR      24  10  55 W17       29.76F WCI  11
ROCK SPRINGS   FAIR      21   5  50 SW12      29.77F WCI   9
DIXON            N/A     27   3  35 SW14G21   29.84F WCI  16
RAWLINS        FAIR      21   7  54 SW23G35   29.75F WCI   5
SARATOGA       FAIR      27   7  43 SW15      29.76S WCI  15
LARAMIE        FAIR      23   3  42 SW23G30   29.68S WCI   7
CHEYENNE       FAIR      26  12  55 S9        29.74S WCI  17
TORRINGTON     FAIR      30  13  49 W12       29.79S WCI  20
PINE BLUFFS    FAIR      32  10  40 S9G18     29.78F WCI  24

$$




USA.gov is the U.S. government's official web portal to all federal, state and local government web resources and services.